Time,TemperatureF,DewpointF,PressureIn,WindDirection,WindDirectionDegrees,WindSpeedMPH,WindSpeedGustMPH,Humidity,HourlyPrecipIn,Conditions,Clouds,dailyrainin,SoftwareType,DateUTC
2013-01-26 00:21:00,54.0,50.0,29.97,North,-999,0.0,0.0,87,0.05,,,-99.99,,2013-01-26 08:21:00,
2013-01-26 00:31:00,54.0,50.0,29.97,North,-999,0.0,0.0,87,0.05,,,-99.99,,2013-01-26 08:31:00,
2013-01-26 00:42:00,54.0,50.0,29.97,North,-999,0.0,0.0,87,0.05,,,-99.99,,2013-01-26 08:42:00,
2013-01-26 01:22:00,54.0,50.0,29.96,North,-999,0.0,0.0,87,0.01,,,-99.99,,2013-01-26 09:22:00,
2013-01-26 01:31:00,54.0,50.0,29.96,North,-999,0.0,0.0,87,0.01,,,-99.99,,2013-01-26 09:31:00,
2013-01-26 01:42:00,54.0,50.0,29.96,North,-999,0.0,0.0,87,0.01,,,-99.99,,2013-01-26 09:42:00,
2013-01-26 03:22:00,54.0,50.0,29.92,North,-999,0.0,0.0,87,0.00,,,-99.99,,2013-01-26 11:22:00,
2013-01-26 03:32:00,54.0,50.0,29.92,North,-999,0.0,0.0,87,0.00,,,-99.99,,2013-01-26 11:32:00,
2013-01-26 03:42:00,54.0,50.0,29.92,North,-999,0.0,0.0,87,0.00,,,-99.99,,2013-01-26 11:42:00,
2013-01-26 04:22:00,54.0,51.0,29.92,North,-999,0.0,0.0,88,0.01,,,-99.99,,2013-01-26 12:22:00,
2013-01-26 04:33:00,54.0,51.0,29.92,North,-999,0.0,0.0,88,0.01,,,-99.99,,2013-01-26 12:33:00,
2013-01-26 04:42:00,54.0,51.0,29.92,North,-999,0.0,0.0,88,0.01,,,-99.99,,2013-01-26 12:42:00,
2013-01-26 05:22:00,54.0,51.0,29.90,North,0,0.0,7.0,88,0.00,,,-99.99,,2013-01-26 13:22:00,
2013-01-26 05:32:00,54.0,51.0,29.90,North,0,0.0,7.0,88,0.00,,,-99.99,,2013-01-26 13:32:00,
2013-01-26 05:42:00,54.0,51.0,29.90,North,0,0.0,7.0,88,0.00,,,-99.99,,2013-01-26 13:42:00,
2013-01-26 06:21:00,53.0,50.0,29.90,North,-999,0.0,0.0,88,0.00,,,-99.99,,2013-01-26 14:21:00,
2013-01-26 06:32:00,53.0,50.0,29.90,North,-999,0.0,0.0,88,0.00,,,-99.99,,2013-01-26 14:32:00,
2013-01-26 06:42:00,53.0,50.0,29.90,North,-999,0.0,0.0,88,0.00,,,-99.99,,2013-01-26 14:42:00,
2013-01-26 07:22:00,53.0,50.0,29.91,North,-999,0.0,0.0,89,0.00,,,-99.99,,2013-01-26 15:22:00,
2013-01-26 07:32:00,53.0,50.0,29.91,North,-999,0.0,0.0,89,0.00,,,-99.99,,2013-01-26 15:32:00,
2013-01-26 07:43:00,53.0,50.0,29.91,North,-999,0.0,0.0,89,0.00,,,-99.99,,2013-01-26 15:43:00,
2013-01-26 08:22:00,54.0,51.0,29.92,North,-999,0.0,0.0,89,0.00,,,-99.99,,2013-01-26 16:22:00,
2013-01-26 08:32:00,54.0,51.0,29.92,North,-999,0.0,0.0,89,0.00,,,-99.99,,2013-01-26 16:32:00,
2013-01-26 08:42:00,54.0,51.0,29.92,North,-999,0.0,0.0,89,0.00,,,-99.99,,2013-01-26 16:42:00,
2013-01-26 09:22:00,55.0,52.0,29.92,North,-999,0.0,0.0,89,0.00,,,-99.99,,2013-01-26 17:22:00,
2013-01-26 09:32:00,55.0,52.0,29.92,North,-999,0.0,0.0,89,0.00,,,-99.99,,2013-01-26 17:32:00,
2013-01-26 09:42:00,55.0,52.0,29.92,North,-999,0.0,0.0,89,0.00,,,-99.99,,2013-01-26 17:42:00,
2013-01-26 10:22:00,55.0,52.0,29.95,North,0,0.0,1.0,89,0.00,,,-99.99,,2013-01-26 18:22:00,
2013-01-26 10:32:00,55.0,52.0,29.95,North,0,0.0,1.0,89,0.00,,,-99.99,,2013-01-26 18:32:00,
2013-01-26 10:42:00,55.0,52.0,29.95,North,0,0.0,1.0,89,0.00,,,-99.99,,2013-01-26 18:42:00,
2013-01-26 11:22:00,57.0,54.0,29.95,North,0,0.0,1.0,89,0.00,,,-99.99,,2013-01-26 19:22:00,
2013-01-26 11:32:00,57.0,54.0,29.95,North,0,0.0,1.0,89,0.00,,,-99.99,,2013-01-26 19:32:00,
2013-01-26 11:42:00,57.0,54.0,29.95,North,0,0.0,1.0,89,0.00,,,-99.99,,2013-01-26 19:42:00,
2013-01-26 12:21:00,57.0,53.0,29.93,North,0,0.0,1.0,85,0.00,,,-99.99,,2013-01-26 20:21:00,
2013-01-26 12:32:00,57.0,53.0,29.93,North,0,0.0,1.0,85,0.00,,,-99.99,,2013-01-26 20:32:00,
2013-01-26 12:42:00,57.0,53.0,29.93,North,0,0.0,1.0,85,0.00,,,-99.99,,2013-01-26 20:42:00,
2013-01-26 13:22:00,56.0,51.0,29.91,North,0,0.0,6.0,84,0.01,,,-99.99,,2013-01-26 21:22:00,
2013-01-26 13:32:00,56.0,51.0,29.91,North,0,0.0,6.0,84,0.01,,,-99.99,,2013-01-26 21:32:00,
2013-01-26 13:42:00,56.0,51.0,29.91,North,0,0.0,6.0,84,0.01,,,-99.99,,2013-01-26 21:42:00,
2013-01-26 14:21:00,57.0,51.0,29.90,North,0,0.0,1.0,81,0.00,,,-99.99,,2013-01-26 22:21:00,
2013-01-26 14:31:00,57.0,51.0,29.90,North,0,0.0,1.0,81,0.00,,,-99.99,,2013-01-26 22:31:00,
2013-01-26 14:42:00,57.0,51.0,29.90,North,0,0.0,1.0,81,0.00,,,-99.99,,2013-01-26 22:42:00,
2013-01-26 15:21:00,57.0,51.0,29.91,North,-999,0.0,0.0,81,0.01,,,-99.99,,2013-01-26 23:21:00,
2013-01-26 15:32:00,57.0,51.0,29.91,North,-999,0.0,0.0,81,0.01,,,-99.99,,2013-01-26 23:32:00,
2013-01-26 15:41:00,57.0,51.0,29.91,North,-999,0.0,0.0,81,0.01,,,-99.99,,2013-01-26 23:41:00,
2013-01-26 16:21:00,58.0,53.0,29.91,North,-999,0.0,0.0,83,0.00,,,-99.99,,2013-01-27 00:21:00,
2013-01-26 16:32:00,58.0,53.0,29.91,North,-999,0.0,0.0,83,0.00,,,-99.99,,2013-01-27 00:32:00,
2013-01-26 16:41:00,58.0,53.0,29.91,North,-999,0.0,0.0,83,0.00,,,-99.99,,2013-01-27 00:41:00,
2013-01-26 17:22:00,55.0,51.0,29.91,SSW,200,10.0,20.0,85,0.02,,,-99.99,,2013-01-27 01:22:00,
2013-01-26 17:32:00,55.0,51.0,29.91,SSW,200,10.0,20.0,85,0.02,,,-99.99,,2013-01-27 01:32:00,
2013-01-26 17:41:00,55.0,51.0,29.91,SSW,200,10.0,20.0,85,0.02,,,-99.99,,2013-01-27 01:41:00,
2013-01-26 18:21:00,55.0,51.0,29.93,North,0,0.0,20.0,86,0.01,,,-99.99,,2013-01-27 02:21:00,
2013-01-26 18:31:00,55.0,51.0,29.93,North,0,0.0,20.0,86,0.01,,,-99.99,,2013-01-27 02:31:00,
2013-01-26 18:41:00,55.0,51.0,29.93,North,0,0.0,20.0,86,0.01,,,-99.99,,2013-01-27 02:41:00,
2013-01-26 19:21:00,54.0,50.0,29.95,North,0,0.0,10.0,87,0.00,,,-99.99,,2013-01-27 03:21:00,
2013-01-26 19:31:00,54.0,50.0,29.95,North,0,0.0,10.0,87,0.00,,,-99.99,,2013-01-27 03:31:00,
2013-01-26 19:41:00,54.0,50.0,29.95,North,0,0.0,10.0,87,0.00,,,-99.99,,2013-01-27 03:41:00,
2013-01-26 20:21:00,54.0,50.0,29.95,North,-999,0.0,0.0,87,0.00,,,-99.99,,2013-01-27 04:21:00,
2013-01-26 20:31:00,54.0,50.0,29.95,North,-999,0.0,0.0,87,0.00,,,-99.99,,2013-01-27 04:31:00,
2013-01-26 20:41:00,54.0,50.0,29.95,North,-999,0.0,0.0,87,0.00,,,-99.99,,2013-01-27 04:41:00,
2013-01-26 21:22:00,54.0,50.0,29.96,North,-999,0.0,0.0,87,0.00,,,-99.99,,2013-01-27 05:22:00,
2013-01-26 21:32:00,54.0,50.0,29.96,North,-999,0.0,0.0,87,0.00,,,-99.99,,2013-01-27 05:32:00,
2013-01-26 21:41:00,54.0,50.0,29.96,North,-999,0.0,0.0,87,0.00,,,-99.99,,2013-01-27 05:41:00,
2013-01-26 22:21:00,53.0,49.0,29.98,North,-999,0.0,0.0,87,0.00,,,-99.99,,2013-01-27 06:21:00,
2013-01-26 22:31:00,53.0,49.0,29.98,North,-999,0.0,0.0,87,0.00,,,-99.99,,2013-01-27 06:31:00,
2013-01-26 22:41:00,53.0,49.0,29.98,North,-999,0.0,0.0,87,0.00,,,-99.99,,2013-01-27 06:41:00,
2013-01-26 23:21:00,53.0,49.0,29.98,North,0,0.0,1.0,87,0.00,,,-99.99,,2013-01-27 07:21:00,
2013-01-26 23:31:00,53.0,49.0,29.98,North,0,0.0,1.0,87,0.00,,,-99.99,,2013-01-27 07:31:00,
2013-01-26 23:41:00,53.0,49.0,29.98,North,0,0.0,1.0,87,0.00,,,-99.99,,2013-01-27 07:41:00,